TimeEST,TemperatureF,Dew PointF,Humidity,Sea Level PressureIn,VisibilityMPH,Wind Direction,Wind SpeedMPH,Gust SpeedMPH,PrecipitationIn,Events,Conditions,WindDirDegrees,DateUTC
12:56 AM,50.0,46.0,86,30.11,-9999.0,NW,3.5,-,N/A,,Clear,320,2013-12-31 05:56:00
1:56 AM,50.0,45.0,83,30.12,-9999.0,North,3.5,-,N/A,,Clear,360,2013-12-31 06:56:00
2:56 AM,48.9,45.0,86,30.14,-9999.0,North,3.5,-,N/A,,Clear,350,2013-12-31 07:56:00
3:56 AM,48.9,45.0,86,30.10,-9999.0,NE,3.5,-,N/A,,Clear,40,2013-12-31 08:56:00
4:56 AM,48.0,46.0,93,30.11,-9999.0,NNW,4.6,-,N/A,,Clear,340,2013-12-31 09:56:00
5:56 AM,48.0,46.0,93,30.12,-9999.0,NNW,3.5,-,N/A,,Clear,340,2013-12-31 10:56:00
6:56 AM,48.0,46.0,93,30.15,-9999.0,NNW,3.5,-,N/A,,Overcast,340,2013-12-31 11:56:00
7:52 AM,48.2,46.4,93,30.19,-9999.0,NW,11.5,-,N/A,,Overcast,320,2013-12-31 12:52:00
7:56 AM,48.0,46.0,93,30.20,-9999.0,NNW,12.7,-,N/A,,Overcast,330,2013-12-31 12:56:00
8:53 AM,46.4,41.0,81,30.22,-9999.0,North,16.1,24.2,N/A,,Overcast,350,2013-12-31 13:53:00
8:56 AM,46.0,41.0,83,30.22,-9999.0,North,16.1,24.2,N/A,,Overcast,350,2013-12-31 13:56:00
9:33 AM,45.0,41.0,86,30.24,-9999.0,North,15.0,-,N/A,,Overcast,350,2013-12-31 14:33:00
9:46 AM,45.0,39.9,82,30.25,-9999.0,North,16.1,-,N/A,,Overcast,350,2013-12-31 14:46:00
9:56 AM,45.0,39.9,82,30.27,-9999.0,North,15.0,-,N/A,,Overcast,350,2013-12-31 14:56:00
10:25 AM,45.0,39.9,82,30.25,-9999.0,North,12.7,-,N/A,,Overcast,350,2013-12-31 15:25:00
10:31 AM,46.0,41.0,83,30.25,-9999.0,North,12.7,-,N/A,,Overcast,350,2013-12-31 15:31:00
10:56 AM,45.0,39.9,82,30.27,-9999.0,NNE,8.1,-,N/A,,Overcast,20,2013-12-31 15:56:00
11:18 AM,46.0,39.9,79,30.24,-9999.0,NE,6.9,-,N/A,,Overcast,40,2013-12-31 16:18:00
11:56 AM,48.9,39.9,71,30.25,-9999.0,NW,8.1,-,N/A,,Clear,320,2013-12-31 16:56:00
12:56 PM,50.0,39.0,66,30.25,-9999.0,NW,8.1,-,N/A,,Clear,310,2013-12-31 17:56:00
1:56 PM,52.0,37.0,57,30.24,-9999.0,WNW,5.8,-,N/A,,Clear,290,2013-12-31 18:56:00
2:56 PM,52.0,34.0,50,30.25,-9999.0,WNW,9.2,-,N/A,,Clear,300,2013-12-31 19:56:00
3:56 PM,52.0,34.0,50,30.26,-9999.0,West,8.1,-,N/A,,Clear,280,2013-12-31 20:56:00
4:56 PM,50.0,36.0,59,30.28,-9999.0,WNW,5.8,-,N/A,,Clear,300,2013-12-31 21:56:00
5:56 PM,48.0,34.0,58,30.30,-9999.0,West,5.8,-,N/A,,Clear,280,2013-12-31 22:56:00
6:56 PM,46.0,36.0,68,30.32,-9999.0,West,3.5,-,N/A,,Clear,270,2013-12-31 23:56:00
7:56 PM,46.0,34.0,63,30.35,-9999.0,WNW,3.5,-,N/A,,Clear,290,2014-01-01 00:56:00
8:56 PM,46.9,37.9,71,30.38,-9999.0,SW,5.8,-,N/A,,Clear,230,2014-01-01 01:56:00
9:56 PM,46.0,37.9,73,30.38,-9999.0,SW,4.6,-,N/A,,Clear,220,2014-01-01 02:56:00
10:56 PM,46.0,39.0,76,30.38,-9999.0,WSW,4.6,-,N/A,,Clear,240,2014-01-01 03:56:00
11:56 PM,44.1,37.9,79,30.37,-9999.0,SW,5.8,-,N/A,,Clear,230,2014-01-01 04:56:00